Location: Powder Track
(41.8531°N, 72.3584°W)
Time: 22:45:56
(UTC+00:00)

Vanguard 1 Rocket - Pass Details

Date: 07 August 2021
Orbit: 650 x 4226 km, 34.3° (Epoch: 19 September)

Event Time Altitude Azimuth Distance (km) Brightness Sun altitude
Rises 18:50:58 0° 280° (W) 6,703 12.2 54.3°
Reaches altitude 10° 18:56:49 10° 272° (W) 5,034 11.8 53.4°
Maximum altitude 19:07:09 30° 219° (SW) 2,523 11.0 51.8°
Drops below altitude 10° 19:13:22 10° 160° (SSE) 2,949 10.2 50.8°
Sets 19:15:50 0° 148° (SSE) 3,613 10.5 50.4°
